Time,TemperatureF,DewpointF,PressureIn,WindDirection,WindDirectionDegrees,WindSpeedMPH,WindSpeedGustMPH,Humidity,HourlyPrecipIn,Conditions,Clouds,dailyrainin,SoftwareType,DateUTC
2013-02-07 00:02:00,19.0,-99.9,-100.00,ESE,113,0.0,3.0,-999,0.00,,,0.12,,2013-02-07 06:02:00,
2013-02-07 00:11:00,19.0,-99.9,-100.00,ESE,113,0.0,3.0,-999,0.00,,,0.12,,2013-02-07 06:11:00,
2013-02-07 00:22:00,19.0,-99.9,-100.00,East,90,1.0,3.0,-999,0.00,,,0.12,,2013-02-07 06:22:00,
2013-02-07 00:32:00,19.0,-99.9,-100.00,ENE,68,1.0,3.0,-999,0.00,,,0.12,,2013-02-07 06:32:00,
2013-02-07 00:43:00,19.0,-99.9,-100.00,ENE,68,1.0,3.0,-999,0.00,,,0.12,,2013-02-07 06:43:00,
2013-02-07 00:53:00,19.0,-99.9,-100.00,ESE,113,0.0,5.0,-999,0.00,,,0.12,,2013-02-07 06:53:00,
2013-02-07 01:02:00,19.0,-99.9,-100.00,East,90,0.0,3.0,-999,0.00,,,0.12,,2013-02-07 07:02:00,
2013-02-07 01:12:00,19.0,-99.9,-100.00,East,90,1.0,3.0,-999,0.00,,,0.12,,2013-02-07 07:12:00,
2013-02-07 01:22:00,19.0,-99.9,-100.00,East,90,1.0,3.0,-999,0.00,,,0.12,,2013-02-07 07:22:00,
2013-02-07 01:32:00,19.0,-99.9,-100.00,East,90,0.0,3.0,-999,0.00,,,0.12,,2013-02-07 07:32:00,
2013-02-07 01:42:00,19.0,-99.9,-100.00,East,90,0.0,3.0,-999,0.00,,,0.12,,2013-02-07 07:42:00,
2013-02-07 01:53:00,19.0,-99.9,-100.00,East,90,1.0,3.0,-999,0.00,,,0.12,,2013-02-07 07:53:00,
2013-02-07 02:02:00,19.0,-99.9,-100.00,East,90,0.0,3.0,-999,0.00,,,0.12,,2013-02-07 08:02:00,
2013-02-07 02:11:00,19.0,-99.9,-100.00,East,90,0.0,3.0,-999,0.00,,,0.12,,2013-02-07 08:11:00,
2013-02-07 02:22:00,19.0,-99.9,-100.00,SE,135,1.0,3.0,-999,0.00,,,0.12,,2013-02-07 08:22:00,
2013-02-07 02:32:00,19.0,-99.9,-100.00,NE,45,0.0,3.0,-999,0.00,,,0.12,,2013-02-07 08:32:00,
2013-02-07 02:42:00,19.0,-99.9,-100.00,NE,45,0.0,3.0,-999,0.00,,,0.12,,2013-02-07 08:42:00,
2013-02-07 02:52:00,19.0,-99.9,-100.00,East,90,0.0,3.0,-999,0.00,,,0.12,,2013-02-07 08:52:00,
2013-02-07 03:02:00,19.0,-99.9,-100.00,ENE,68,1.0,3.0,-999,0.00,,,0.12,,2013-02-07 09:02:00,
2013-02-07 03:11:00,19.0,-99.9,-100.00,ENE,68,1.0,3.0,-999,0.00,,,0.12,,2013-02-07 09:11:00,
2013-02-07 03:22:00,19.0,-99.9,-100.00,NE,45,2.0,3.0,-999,0.00,,,0.12,,2013-02-07 09:22:00,
2013-02-07 03:32:00,19.0,-99.9,-100.00,NE,45,2.0,3.0,-999,0.00,,,0.12,,2013-02-07 09:32:00,
2013-02-07 03:42:00,19.0,-99.9,-100.00,NE,45,2.0,3.0,-999,0.00,,,0.12,,2013-02-07 09:42:00,
2013-02-07 03:52:00,19.0,-99.9,-100.00,East,90,1.0,5.0,-999,0.00,,,0.12,,2013-02-07 09:52:00,
2013-02-07 04:02:00,19.0,-99.9,-100.00,ENE,68,0.0,3.0,-999,0.00,,,0.12,,2013-02-07 10:02:00,
2013-02-07 04:11:00,19.0,-99.9,-100.00,ENE,68,0.0,3.0,-999,0.00,,,0.12,,2013-02-07 10:11:00,
2013-02-07 04:22:00,19.0,-99.9,-100.00,ENE,68,1.0,3.0,-999,0.00,,,0.12,,2013-02-07 10:22:00,
2013-02-07 04:32:00,19.0,-99.9,-100.00,NNE,23,0.0,5.0,-999,0.00,,,0.12,,2013-02-07 10:32:00,
2013-02-07 04:42:00,19.0,-99.9,-100.00,NNE,23,0.0,5.0,-999,0.00,,,0.12,,2013-02-07 10:42:00,
2013-02-07 04:52:00,19.0,-99.9,-100.00,ENE,68,0.0,5.0,-999,0.00,,,0.12,,2013-02-07 10:52:00,
2013-02-07 05:02:00,19.0,-99.9,-100.00,ESE,113,1.0,2.0,-999,0.00,,,0.12,,2013-02-07 11:02:00,
2013-02-07 05:12:00,19.0,-99.9,-100.00,ESE,113,1.0,2.0,-999,0.00,,,0.12,,2013-02-07 11:12:00,
2013-02-07 05:23:00,18.0,-99.9,-100.00,ENE,68,0.0,3.0,-999,0.00,,,0.12,,2013-02-07 11:23:00,
2013-02-07 05:32:00,19.0,-99.9,-100.00,East,90,1.0,3.0,-999,0.00,,,0.12,,2013-02-07 11:32:00,
2013-02-07 05:44:00,19.0,-99.9,-100.00,East,90,1.0,3.0,-999,0.00,,,0.12,,2013-02-07 11:44:00,
2013-02-07 05:53:00,18.0,-99.9,-100.00,ESE,113,0.0,3.0,-999,0.00,,,0.12,,2013-02-07 11:53:00,
2013-02-07 06:02:00,18.0,-99.9,-100.00,East,90,0.0,3.0,-999,0.00,,,0.12,,2013-02-07 12:02:00,
2013-02-07 06:12:00,18.0,-99.9,-100.00,East,90,0.0,3.0,-999,0.00,,,0.12,,2013-02-07 12:12:00,
2013-02-07 06:22:00,19.0,-99.9,-100.00,East,90,0.0,3.0,-999,0.00,,,0.12,,2013-02-07 12:22:00,
2013-02-07 06:33:00,19.0,-99.9,-100.00,ENE,68,1.0,3.0,-999,0.00,,,0.12,,2013-02-07 12:33:00,
2013-02-07 06:42:00,19.0,-99.9,-100.00,ENE,68,1.0,3.0,-999,0.00,,,0.12,,2013-02-07 12:42:00,
2013-02-07 06:53:00,18.0,-99.9,-100.00,ENE,68,0.0,3.0,-999,0.00,,,0.12,,2013-02-07 12:53:00,
2013-02-07 07:03:00,18.0,-99.9,-100.00,ENE,68,1.0,3.0,-999,0.00,,,0.12,,2013-02-07 13:03:00,
2013-02-07 07:12:00,18.0,-99.9,-100.00,ENE,68,1.0,3.0,-999,0.00,,,0.12,,2013-02-07 13:12:00,
2013-02-07 07:22:00,18.0,-99.9,-100.00,NE,45,1.0,5.0,-999,0.00,,,0.12,,2013-02-07 13:22:00,
2013-02-07 07:33:00,19.0,-99.9,-100.00,East,90,0.0,3.0,-999,0.00,,,0.12,,2013-02-07 13:33:00,
2013-02-07 07:42:00,19.0,-99.9,-100.00,East,90,0.0,3.0,-999,0.00,,,0.12,,2013-02-07 13:42:00,
2013-02-07 07:52:00,19.0,-99.9,-100.00,East,90,0.0,3.0,-999,0.00,,,0.12,,2013-02-07 13:52:00,
2013-02-07 08:02:00,19.0,-99.9,-100.00,ENE,68,1.0,5.0,-999,0.00,,,0.12,,2013-02-07 14:02:00,
2013-02-07 08:12:00,19.0,-99.9,-100.00,ENE,68,1.0,5.0,-999,0.00,,,0.12,,2013-02-07 14:12:00,
2013-02-07 08:22:00,19.0,-99.9,-100.00,East,90,0.0,3.0,-999,0.00,,,0.12,,2013-02-07 14:22:00,
2013-02-07 08:32:00,19.0,-99.9,-100.00,NE,45,2.0,5.0,-999,0.00,,,0.12,,2013-02-07 14:32:00,
2013-02-07 08:42:00,19.0,-99.9,-100.00,NE,45,2.0,5.0,-999,0.00,,,0.12,,2013-02-07 14:42:00,
2013-02-07 08:52:00,19.0,-99.9,-100.00,NE,45,2.0,5.0,-999,0.00,,,0.12,,2013-02-07 14:52:00,
2013-02-07 09:02:00,20.0,-99.9,-100.00,ENE,68,2.0,5.0,-999,0.00,,,0.12,,2013-02-07 15:02:00,
2013-02-07 09:11:00,20.0,-99.9,-100.00,ENE,68,2.0,5.0,-999,0.00,,,0.12,,2013-02-07 15:11:00,
2013-02-07 09:22:00,20.0,-99.9,-100.00,NNE,23,1.0,7.0,-999,0.00,,,0.12,,2013-02-07 15:22:00,
2013-02-07 09:32:00,20.0,-99.9,-100.00,NE,45,1.0,6.0,-999,0.00,,,0.12,,2013-02-07 15:32:00,
2013-02-07 09:42:00,20.0,-99.9,-100.00,NE,45,1.0,6.0,-999,0.00,,,0.12,,2013-02-07 15:42:00,
2013-02-07 09:53:00,21.0,-99.9,-100.00,ENE,68,1.0,5.0,-999,0.00,,,0.12,,2013-02-07 15:53:00,
2013-02-07 10:02:00,21.0,-99.9,-100.00,ENE,68,1.0,6.0,-999,0.00,,,0.12,,2013-02-07 16:02:00,
2013-02-07 10:11:00,21.0,-99.9,-100.00,ENE,68,1.0,6.0,-999,0.00,,,0.12,,2013-02-07 16:11:00,
2013-02-07 10:22:00,21.0,-99.9,-100.00,NE,45,1.0,5.0,-999,0.00,,,0.12,,2013-02-07 16:22:00,
2013-02-07 10:32:00,21.0,-99.9,-100.00,NNE,23,2.0,6.0,-999,0.00,,,0.12,,2013-02-07 16:32:00,
2013-02-07 10:42:00,21.0,-99.9,-100.00,NNE,23,2.0,6.0,-999,0.00,,,0.12,,2013-02-07 16:42:00,
2013-02-07 10:52:00,21.0,-99.9,-100.00,ENE,68,1.0,7.0,-999,0.00,,,0.12,,2013-02-07 16:52:00,
2013-02-07 11:01:00,22.0,-99.9,-100.00,NE,45,2.0,6.0,-999,0.00,,,0.12,,2013-02-07 17:01:00,
2013-02-07 11:11:00,22.0,-99.9,-100.00,NE,45,2.0,6.0,-999,0.00,,,0.12,,2013-02-07 17:11:00,
2013-02-07 11:22:00,22.0,-99.9,-100.00,NE,45,1.0,8.0,-999,0.00,,,0.12,,2013-02-07 17:22:00,
2013-02-07 11:32:00,22.0,-99.9,-100.00,NNE,23,1.0,5.0,-999,0.00,,,0.12,,2013-02-07 17:32:00,
2013-02-07 11:43:00,22.0,-99.9,-100.00,NNE,23,1.0,5.0,-999,0.00,,,0.12,,2013-02-07 17:43:00,
2013-02-07 11:52:00,22.0,-99.9,-100.00,NE,45,6.0,8.0,-999,0.00,,,0.12,,2013-02-07 17:52:00,
2013-02-07 12:02:00,22.0,-99.9,-100.00,NE,45,2.0,9.0,-999,0.00,,,0.12,,2013-02-07 18:02:00,
2013-02-07 12:12:00,22.0,-99.9,-100.00,NE,45,2.0,9.0,-999,0.00,,,0.12,,2013-02-07 18:12:00,
2013-02-07 12:23:00,23.0,-99.9,-100.00,ENE,68,1.0,7.0,-999,0.00,,,0.12,,2013-02-07 18:23:00,
2013-02-07 12:32:00,24.0,-99.9,-100.00,NNE,23,3.0,7.0,-999,0.00,,,0.12,,2013-02-07 18:32:00,
2013-02-07 12:42:00,24.0,-99.9,-100.00,NNE,23,3.0,7.0,-999,0.00,,,0.12,,2013-02-07 18:42:00,
2013-02-07 12:52:00,24.0,-99.9,-100.00,NNE,23,2.0,9.0,-999,0.00,,,0.12,,2013-02-07 18:52:00,
2013-02-07 13:02:00,23.0,-99.9,-100.00,NNE,23,2.0,9.0,-999,0.00,,,0.12,,2013-02-07 19:02:00,
2013-02-07 13:11:00,23.0,-99.9,-100.00,NNE,23,2.0,9.0,-999,0.00,,,0.12,,2013-02-07 19:11:00,
2013-02-07 13:22:00,23.0,-99.9,-100.00,NNE,23,3.0,12.0,-999,0.00,,,0.12,,2013-02-07 19:22:00,
2013-02-07 13:32:00,23.0,-99.9,-100.00,NNE,23,3.0,9.0,-999,0.00,,,0.12,,2013-02-07 19:32:00,
2013-02-07 13:42:00,23.0,-99.9,-100.00,NNE,23,3.0,9.0,-999,0.00,,,0.12,,2013-02-07 19:42:00,
2013-02-07 13:52:00,23.0,-99.9,-100.00,NE,45,1.0,8.0,-999,0.00,,,0.12,,2013-02-07 19:52:00,
2013-02-07 14:01:00,24.0,-99.9,-100.00,North,0,2.0,5.0,-999,0.00,,,0.12,,2013-02-07 20:01:00,
2013-02-07 14:11:00,24.0,-99.9,-100.00,North,0,2.0,5.0,-999,0.00,,,0.12,,2013-02-07 20:11:00,
2013-02-07 14:22:00,24.0,-99.9,-100.00,NNE,23,3.0,10.0,-999,0.00,,,0.12,,2013-02-07 20:22:00,
2013-02-07 14:32:00,24.0,-99.9,-100.00,NNE,23,2.0,6.0,-999,0.00,,,0.12,,2013-02-07 20:32:00,
2013-02-07 14:42:00,24.0,-99.9,-100.00,NNE,23,2.0,6.0,-999,0.00,,,0.12,,2013-02-07 20:42:00,
2013-02-07 14:52:00,24.0,-99.9,-100.00,NE,45,3.0,12.0,-999,0.00,,,0.12,,2013-02-07 20:52:00,
2013-02-07 15:02:00,24.0,-99.9,-100.00,NNE,23,3.0,9.0,-999,0.00,,,0.12,,2013-02-07 21:02:00,
2013-02-07 15:11:00,24.0,-99.9,-100.00,NNE,23,3.0,9.0,-999,0.00,,,0.12,,2013-02-07 21:11:00,
2013-02-07 15:22:00,24.0,-99.9,-100.00,NNE,23,1.0,9.0,-999,0.00,,,0.12,,2013-02-07 21:22:00,
2013-02-07 15:32:00,23.0,-99.9,-100.00,NE,45,2.0,12.0,-999,0.00,,,0.12,,2013-02-07 21:32:00,
2013-02-07 15:42:00,23.0,-99.9,-100.00,NE,45,2.0,12.0,-999,0.00,,,0.12,,2013-02-07 21:42:00,
2013-02-07 15:52:00,23.0,-99.9,-100.00,NNE,23,3.0,10.0,-999,0.00,,,0.10,,2013-02-07 21:52:00,
2013-02-07 16:02:00,23.0,-99.9,-100.00,NNE,23,3.0,13.0,-999,0.00,,,0.10,,2013-02-07 22:02:00,
2013-02-07 16:11:00,23.0,-99.9,-100.00,NNE,23,3.0,13.0,-999,0.00,,,0.10,,2013-02-07 22:11:00,
2013-02-07 16:22:00,23.0,-99.9,-100.00,NNE,23,3.0,13.0,-999,0.00,,,0.10,,2013-02-07 22:22:00,
2013-02-07 16:32:00,22.0,-99.9,-100.00,NE,45,3.0,12.0,-999,0.00,,,0.08,,2013-02-07 22:32:00,
2013-02-07 16:42:00,22.0,-99.9,-100.00,NE,45,3.0,12.0,-999,0.00,,,0.08,,2013-02-07 22:42:00,
2013-02-07 16:52:00,22.0,-99.9,-100.00,NE,45,7.0,12.0,-999,0.00,,,0.07,,2013-02-07 22:52:00,
2013-02-07 17:02:00,22.0,-99.9,-100.00,NNE,23,5.0,13.0,-999,0.00,,,0.07,,2013-02-07 23:02:00,
2013-02-07 17:11:00,22.0,-99.9,-100.00,NNE,23,5.0,13.0,-999,0.00,,,0.07,,2013-02-07 23:11:00,
2013-02-07 17:22:00,22.0,-99.9,-100.00,NE,45,5.0,12.0,-999,0.00,,,0.06,,2013-02-07 23:22:00,
2013-02-07 17:32:00,22.0,-99.9,-100.00,NNE,23,3.0,12.0,-999,0.00,,,0.05,,2013-02-07 23:32:00,
2013-02-07 17:42:00,22.0,-99.9,-100.00,NNE,23,3.0,12.0,-999,0.00,,,0.05,,2013-02-07 23:42:00,
2013-02-07 17:52:00,22.0,-99.9,-100.00,NNE,23,3.0,12.0,-999,0.00,,,0.05,,2013-02-07 23:52:00,
2013-02-07 18:02:00,21.0,-99.9,-100.00,NNE,23,3.0,14.0,-999,0.00,,,0.04,,2013-02-08 00:02:00,
2013-02-07 18:11:00,21.0,-99.9,-100.00,NNE,23,3.0,14.0,-999,0.00,,,0.04,,2013-02-08 00:11:00,
2013-02-07 18:22:00,21.0,-99.9,-100.00,NE,45,3.0,10.0,-999,0.00,,,0.03,,2013-02-08 00:22:00,
2013-02-07 18:32:00,21.0,-99.9,-100.00,NNE,23,3.0,9.0,-999,0.00,,,0.02,,2013-02-08 00:32:00,
2013-02-07 18:42:00,21.0,-99.9,-100.00,NNE,23,3.0,9.0,-999,0.00,,,0.02,,2013-02-08 00:42:00,
2013-02-07 18:53:00,21.0,-99.9,-100.00,NNE,23,3.0,10.0,-999,0.00,,,0.02,,2013-02-08 00:53:00,
2013-02-07 19:02:00,21.0,-99.9,-100.00,NE,45,6.0,15.0,-999,0.00,,,0.00,,2013-02-08 01:02:00,
2013-02-07 19:11:00,21.0,-99.9,-100.00,NE,45,6.0,15.0,-999,0.00,,,0.00,,2013-02-08 01:11:00,
2013-02-07 19:22:00,21.0,-99.9,-100.00,NE,45,2.0,12.0,-999,0.00,,,0.00,,2013-02-08 01:22:00,
2013-02-07 19:32:00,20.0,-99.9,-100.00,NE,45,1.0,15.0,-999,0.00,,,0.00,,2013-02-08 01:32:00,
2013-02-07 19:42:00,20.0,-99.9,-100.00,NE,45,1.0,15.0,-999,0.00,,,0.00,,2013-02-08 01:42:00,
2013-02-07 19:52:00,20.0,-99.9,-100.00,NNE,23,8.0,21.0,-999,0.00,,,0.00,,2013-02-08 01:52:00,
2013-02-07 20:01:00,20.0,-99.9,-100.00,NNE,23,3.0,13.0,-999,0.00,,,0.00,,2013-02-08 02:01:00,
2013-02-07 20:11:00,20.0,-99.9,-100.00,NNE,23,3.0,13.0,-999,0.00,,,0.00,,2013-02-08 02:11:00,
2013-02-07 20:22:00,20.0,-99.9,-100.00,NE,45,3.0,14.0,-999,0.00,,,0.00,,2013-02-08 02:22:00,
2013-02-07 20:32:00,20.0,-99.9,-100.00,NNE,23,6.0,14.0,-999,0.00,,,0.00,,2013-02-08 02:32:00,
2013-02-07 20:42:00,20.0,-99.9,-100.00,NNE,23,6.0,14.0,-999,0.00,,,0.00,,2013-02-08 02:42:00,
2013-02-07 20:53:00,20.0,-99.9,-100.00,NE,45,6.0,14.0,-999,0.00,,,0.00,,2013-02-08 02:53:00,
2013-02-07 21:02:00,19.0,-99.9,-100.00,NNE,23,5.0,14.0,-999,0.00,,,0.00,,2013-02-08 03:02:00,
2013-02-07 21:12:00,19.0,-99.9,-100.00,NNE,23,5.0,14.0,-999,0.00,,,0.00,,2013-02-08 03:12:00,
2013-02-07 21:23:00,19.0,-99.9,-100.00,NNE,23,2.0,13.0,-999,0.00,,,0.00,,2013-02-08 03:23:00,
2013-02-07 21:32:00,19.0,-99.9,-100.00,NNE,23,2.0,12.0,-999,0.00,,,0.00,,2013-02-08 03:32:00,
2013-02-07 21:42:00,19.0,-99.9,-100.00,NNE,23,2.0,12.0,-999,0.00,,,0.00,,2013-02-08 03:42:00,
2013-02-07 21:52:00,19.0,-99.9,-100.00,NE,45,3.0,12.0,-999,0.00,,,0.00,,2013-02-08 03:52:00,
2013-02-07 22:02:00,18.0,-99.9,-100.00,NNE,23,3.0,12.0,-999,0.00,,,0.00,,2013-02-08 04:02:00,
2013-02-07 22:11:00,18.0,-99.9,-100.00,NNE,23,3.0,12.0,-999,0.00,,,0.00,,2013-02-08 04:11:00,
2013-02-07 22:22:00,18.0,-99.9,-100.00,NNE,23,3.0,12.0,-999,0.00,,,0.00,,2013-02-08 04:22:00,
2013-02-07 22:32:00,18.0,-99.9,-100.00,NNE,23,6.0,12.0,-999,0.00,,,0.00,,2013-02-08 04:32:00,
2013-02-07 22:42:00,18.0,-99.9,-100.00,NNE,23,6.0,12.0,-999,0.00,,,0.00,,2013-02-08 04:42:00,
2013-02-07 22:52:00,18.0,-99.9,-100.00,NNE,23,7.0,15.0,-999,0.00,,,0.00,,2013-02-08 04:52:00,
2013-02-07 23:02:00,18.0,-99.9,-100.00,NNE,23,3.0,15.0,-999,0.00,,,0.00,,2013-02-08 05:02:00,
2013-02-07 23:12:00,18.0,-99.9,-100.00,NNE,23,3.0,15.0,-999,0.00,,,0.00,,2013-02-08 05:12:00,
2013-02-07 23:22:00,17.0,-99.9,-100.00,NE,45,2.0,12.0,-999,0.00,,,0.00,,2013-02-08 05:22:00,
2013-02-07 23:32:00,17.0,-99.9,-100.00,NE,45,3.0,10.0,-999,0.00,,,0.00,,2013-02-08 05:32:00,
2013-02-07 23:42:00,17.0,-99.9,-100.00,NE,45,3.0,10.0,-999,0.00,,,0.00,,2013-02-08 05:42:00,
2013-02-07 23:52:00,17.0,-99.9,-100.00,North,0,1.0,5.0,-999,0.00,,,0.00,,2013-02-08 05:52:00,